Rawlins, WY

1:20 AM MDT on August 18, 2017 (GMT -0600)
Rawlins Municipal

Weather History for KRWL - June, 2014

Change the Weather History Date:

Wednesday, June 4, 2014

  Actual Average Record
Temperature  
Mean Temperature 60 °F 55 °F  
Max Temperature 80 °F 71 °F 88 °F (1997)
Min Temperature 40 °F 40 °F 24 °F (1951)
Degree Days  
Heating Degree Days 5 10  
Month to date heating degree days 21 41  
Since 1 June heating degree days 21 41  
Since 1 July heating degree days 7851 8244  
Cooling Degree Days 0 0  
Month to date cooling degree days 0 0  
Year to date cooling degree days 2 0  
Since 1 June cooling degree days 0 0  
Growing Degree Days 9 (Base 50)    
Moisture  
Dew Point 29 °F    
Average Humidity 37    
Maximum Humidity 64    
Minimum Humidity 10    
Precipitation  
Precipitation T in 0.04 in 1.04 in (1972)
Month to date precipitation T 0.17  
Year to date precipitation 2.51 4.09  
Sea Level Pressure  
Sea Level Pressure 29.84 in    
Wind  
Wind Speed 7 mph (NW)    
Max Wind Speed 32 mph    
Max Gust Speed 41 mph    
Visibility 10 miles    
Events      
T = Trace of Precipitation, MM = Missing Value Source: NWS Daily Summary

Daily Weather History Graph

Daily Weather History Graph

Search for Another Location

Airport or City:

Trip Planner

Search our weather history database for the weather conditions in past years. The results will help you decide how hot, cold, wet, or windy it might be!

Date:

Astronomy

Jun. 04, 2014 Rise Set
Actual Time 5:35 AM MDT 8:39 PM MDT
Civil Twilight 5:01 AM MDT 9:13 PM MDT
Nautical Twilight 4:18 AM MDT 9:56 PM MDT
Astronomical Twilight 3:27 AM MDT 10:47 PM MDT
Moon 12:01 PM MDT (6/4) 12:36 AM MDT (6/4)
Length of Visible Light 16h 11m
Length of Day
15h 04m
Waxing Crescent, 39% of the Moon is Illuminated
Jun 4
Waxing Crescent
Jun 5
First Quarter
Jun 12
Full
Jun 19
Last Quarter
Jun 27
New

Hourly Weather History & Observations

Time (MDT) Temp. Windchill Dew Point Humidity Pressure Visibility Wind Dir Wind Speed Gust Speed Precip Events Conditions
1:53 AM 48.0 °F - 28.0 °F 46% 29.83 in 10.0 mi Variable 4.6 mph - N/A   Clear
2:53 AM 46.9 °F - 28.0 °F 48% 29.83 in 10.0 mi Calm Calm - N/A   Clear
3:53 AM 45.0 °F - 28.0 °F 52% 29.84 in 10.0 mi Calm Calm - N/A   Clear
4:53 AM 42.1 °F 40.2 °F 28.9 °F 60% 29.83 in 10.0 mi Variable 3.5 mph - N/A   Clear
5:53 AM 39.9 °F - 28.0 °F 63% 29.87 in 10.0 mi Calm Calm - N/A   Clear
6:53 AM 50.0 °F - 30.0 °F 46% 29.84 in 10.0 mi Calm Calm - N/A   Clear
7:53 AM 55.0 °F - 32.0 °F 42% 29.83 in 10.0 mi Calm Calm - N/A   Clear
8:53 AM 62.1 °F - 32.0 °F 32% 29.83 in 10.0 mi Calm Calm - N/A   Clear
9:53 AM 68.0 °F - 28.0 °F 22% 29.81 in 10.0 mi SSE 4.6 mph - N/A   Clear
10:53 AM 71.1 °F - 23.0 °F 16% 29.81 in 10.0 mi Calm Calm - N/A   Clear
11:53 AM 72.0 °F - 21.9 °F 15% 29.79 in 10.0 mi Variable 4.6 mph - N/A   Clear
12:53 PM 75.0 °F - 23.0 °F 14% 29.76 in 10.0 mi SSE 8.1 mph - N/A   Clear
1:53 PM 75.9 °F - 21.9 °F 13% 29.75 in 10.0 mi WSW 18.4 mph 24.2 mph N/A   Mostly Cloudy
2:53 PM 79.0 °F - 18.0 °F 10% 29.72 in 10.0 mi WSW 17.3 mph 23.0 mph N/A   Partly Cloudy
3:53 PM 69.1 °F - 28.9 °F 22% 29.79 in 10.0 mi NNW 18.4 mph 39.1 mph N/A   Partly Cloudy
4:00 PM 70.0 °F - 28.0 °F 21% 30.00 in 10.0 mi NNW 24.2 mph 31.1 mph N/A   Scattered Clouds
4:53 PM 72.0 °F - 26.1 °F 18% 29.79 in 10.0 mi NW 13.8 mph - N/A   Mostly Cloudy
5:53 PM 68.0 °F - 34.0 °F 28% 29.86 in 10.0 mi NW 28.8 mph 39.1 mph N/A   Clear
6:53 PM 64.0 °F - 32.0 °F 30% 29.84 in 10.0 mi NW 9.2 mph - N/A   Mostly Cloudy
7:53 PM 62.1 °F - 33.1 °F 34% 29.83 in 10.0 mi ENE 3.5 mph - N/A   Partly Cloudy
9:53 PM 61.0 °F - 30.0 °F 31% 29.83 in 10.0 mi SSW 8.1 mph - 0.00 in   Overcast
10:31 PM 57.0 °F - 37.9 °F 49% 30.11 in 10.0 mi North 17.3 mph - N/A   Clear
10:53 PM 55.0 °F - 39.0 °F 55% 29.86 in 10.0 mi North 13.8 mph - N/A   Partly Cloudy
11:53 PM 51.1 °F - 39.0 °F 63% 29.89 in 10.0 mi NW 4.6 mph - N/A   Clear